Back to catalog

STARLINK-32196

AliveCommunicationsVLEO
NORAD 60430·PAYLOAD·🇺🇸 United States

Launched Aug 12, 2024 from Cape Canaveral Space Force Station

Loading…

Next Passes (next 24 hours)

TLE

FreshSource: CelesTrak SupGP

Epoch: Sep 14, 2026, 22:51 UTC

1 60430C 24144F   26257.95256944  .00023401  00000+0  69153-3 0  2577
2 60430  53.1585  53.8554 0001195  83.2590 326.6767 15.34372153    17

Track STARLINK-32196 in real time with AllMySat

Download on the App Store